Погода в Партизанске

Погода в Партизанске : погода сейчас, прогноз погоды и архив. Всё, что Вы хотите узнать о погоде в Партизанске!

Хотите узнать прогноз погоды в Партизанске? Тогда Вам сюда: Погода в Партизанске

Поиск расширенной информации на нашем сайте:

Другие новости

Новости СМИ2

Главная страница сайта

Новости сайта

02.10.2013

Напоминаем, что на нашем новом сайте вы можете получить высокодетализированные прогнозы погоды по пунктам России, СНГ и мира (включающие важные для авиации метеовеличины, такие как направление и скорость ветра, видимость, явления погоды, количество и форма облачности, нижняя и верхняя граница облачности), а также ознакомиться с разнообразными материалами по авиационной метеорологии и подборкой полезных ссылок на эту тему.

Сайт Метеоцентр.Азия посвящён разработке технологий оптимизации авиаметеорологического обслуживания, включая проектирование и перспективное создание нескольких автоматизированных авиаметеорологических систем:
- система выпуска высокодетальных прогностических карт явлений погоды для нижнего воздушного пространства по России и ближнему зарубежью;
- система верификации прогнозов TAF (выпускаемых синоптиками официальных АМСГ РФ и ближнего зарубежья) и AUTOTAF (выпускаемых сайтом Метеоцентр.Азия) - выявление ошибок, онлайн-сопоставление с фактической погодой METAR, автоматическое внесение коррективов в прогнозы при резком отклонении фактической погоды от прогноза, подсчёт оправдываемости прогнозов по элементам и в целом;
- система обработки, анализа и отображения авиаметеорологической информации для применения провайдерами метеорологической информации.

Рекомендуем: Применяйте для похудения пластыри SOSO - новейшая разработка!

Погода в Партизанске - сегодня

Время (UTC), дата Ветер
(°,м/с) 
Видим.   Явления Облачность Т
(°С)
Тd
(°С)
f(%) Тe
(°С)
Pmin
(гПа)
dP
(гПа)
Po
(мм)
O2
(г/м3)
Тmin Tmax R s Состояние
почвы
06 21.06.17 230 (ЮЗ) 20000 м    10/6 600 м средняя 
[Cu Sc|Ac As]
+17.4 +12.5 73 +23  1005.6  -1.1  736  276           
09 21.06.17 170 (Ю) 20000 м    10/4 600 м верхняя 
[Cu hum|Cs]
+17.9 +12.2 69 +23  1004.5  -1.1  735  276    +20.6       
12 21.06.17 160 (Ю) 20000 м    9/0 средняя 
[Ac trans]
+14.1 +11.9 87 +19  1006.1  1.3  736  280           
15 21.06.17 170 (Ю) 20000 м    10/10 300 м 
[St]
+11.9 +10 88 +15  1006.9  0.5  737  283           
18 21.06.17 тихо ()   4000 м  дымка  10/10 300 м 
[St]
+11.5 +10 90 +13  1006.5  -0.4  736  283           
21 21.06.17 100 (В) 0500 м  туман  ?/?  
+11.3 +9.9 91 +13  1007.5  737  283  +11.2        сухая 
00 22.06.17 060 (СВ) 20000 м  {туман}  10/8 600 м верхняя 
[St|Cs]
+16 +12 77 +21  1006.7  -0.3  737  278           
03 22.06.17 030 (СВ) 20000 м    1/1 1000 м 
[Cu hum]
+23.8 +15.5 60 +34  1004.5  -1.5  736  269           
06 22.06.17 340 (С) 20000 м    8/6 600 м кучево-дожд., средняя, верхняя 
[Cb calv|Ac cuf|Ci ing]
+25.7 +15.1 52 +35  1003.6  -0.7  735  268           
09 22.06.17 160 (Ю) 20000 м    9/5 600 м средняя, верхняя 
[Sc|Ac As|Ci sp]
+21.4 +16.9 76 +34  1004.6  0.7  736  271    +27.1       
12 22.06.17 190 (Ю) 20000 м    3/0 средняя 
[Ac trans]
+16.2 +14.2 88 +26  1006.6  1.4  737  277           
15 22.06.17 030 (СВ) 20000 м    ясно 
+15.4 +13.5 88 +23  1007.4  0.7  737  279           
18 22.06.17 360 (С) 20000 м    ясно 
+14.8 +12.8 88 +21  1007.2  -0.2  737  279           
21 22.06.17 010 (С) 20000 м    ясно 
+15.8 +13.4 86 +23  1007.6  0.5  738  278  +13.7        сухая 
00 23.06.17 050 (СВ) 20000 м    ясно 
+23.8 +16.3 63 +35  1006.8  0.1  737  270           
03 23.06.17 170 (Ю) 20000 м    1/1 1000 м 
[Cu med, cong]
+28.7 +15.6 45 +39  1005.1  -1.3  737  265           
06 23.06.17 190 (Ю) 20000 м    1/1 1000 м 
[Cu med, cong]
+27.9 +16.8 51 +40  1004  -1.1  736  265           
09 23.06.17 180 (Ю) 20000 м    3/1 600 м средняя 
[Sc diur, vesp|Ac cuf]
+25.6 +16.4 57 +37  1003.7  -0.5  735  267    +30       
12 23.06.17 190 (Ю) 20000 м    1/0 верхняя 
[Ci fib]
+17.9 +14.4 80 +27  1006.1  1.7  737  276           
15 23.06.17 тихо ()   20000 м    ясно 
+16.8 +13.9 83 +24  1005.7  -0.5  736  277           
18 23.06.17 340 (С) 20000 м    ясно 
+15.7 +13.7 88 +23  1005.3  -0.6  736  278           
21 23.06.17 тихо ()   20000 м    1/0 верхняя 
[Ci fib]
+15.5 +13.5 88 +22  1005  -0.3  736  278  +14.1        сухая 
00 24.06.17 110 (В) 20000 м    5/0 верхняя 
[Ci fib]
+24.7 +17.2 63 +38  1003.4  -0.8  735  268           
03 24.06.17 180 (Ю) 20000 м    10/1 1000 м верхняя 
[Cu med, cong|Ci]
+29.7 +18.7 52 +46  1001.5  -1.4  734  262           
06 24.06.17 180 (Ю) 20000 м    8/3 1000 м верхняя 
[Cu med, cong|Ci fib]
+29.4 +18.9 53 +46  999.8  -1.7  733  262           
Время (UTC), дата Ветер
(°,м/с) 
Видим.   Явления Облачность Т
(°С)
Тd
(°С)
f(%) Тe
(°С)
Pmin
(гПа)
dP
(гПа)
Po
(мм)
O2
(г/м3)
Тmin Tmax R s Состояние
почвы

Для получения пояснительной информации подведите курсор к названию столбца.

ПОГОДА в Партизанске - архив

Всё, что Вы хотите узнать о погоде в Партизанске - удобно и подробно!

Выберите нужную дату (начиная с 1 января 2015* года) и нажмите кнопку "Найти".
Будут отображены архивные сводки погоды по пункту Партизанск, начиная с указанной даты.


Отображать данные в формате CSV (для использования в таблицах Excel)


Внимание! Наш архив погоды предназначен исключительно для личного некоммерческого использования в познавательных целях. Если Вам необходимы официальные справки о состоянии погоды (для производственных, юридических, коммерческих и т.п. целей), обращайтесь в органы Росгидромета.

*Примечание: данная дата относится к архиву по метеостанциям СССР (Россия, СНГ, Балтия).
Архив по метеостанциям Зарубежной Европы и Азии (кроме Китая) хранится 10 дней, по другим регионам земного шара (Китай, Африка, Америка, Австралия, Океания) - 1 день.

Партизанск - район местоположения метеостанции


Название, широта, долгота, высота метеостанции:
Партизанск 43.2°ш. 133°д. 208 м над ур. моря [Российская Федерация]

Дополнительная информация

В oтличие oт бoльшинства пoгoдных сайтoв мы публикуем пoдрoбную метеoинфoрмацию в детальнoм прoфессиoнальнoм фoрмате.

Характеристики температуры и влажнoсти вoздуха измеряются на высoте 2 м в тени вдали oт зданий и деревьев.
Скoрoсть ветра измеряется на высoте 10 м (на урoвне рoста челoвека скoрoсть ветра ниже в 1.5-2 раза). Если метеoстанция нахoдится в гoрoде или в лесу, тo скoрoсть ветра занижена на 2-4 м/с пo сравнению с oткрытым местoм. Скoрoсть ветра над акватoриями крупных рек и oзёр, а также на вершинах хoлмoв на 2-5 м/с выше, чем в oбычных услoвиях.
Атмoсфернoе давление в разных тoчках местнoсти мoжет значительнo oтличаться oт давления на метеoстанции, в зависимoсти oт услoвий рельефа (при пoдъёме на 10 м давление пoнижается примернo на 1 мм рт.ст.).